Page, AZ

7:58 AM MDT on July 21, 2017 (GMT -0600)
Page Municipal

Weather History for KPGA - October, 2013

Change the Weather History Date:

Thursday, October 10, 2013

  Actual Average Record
Temperature  
Mean Temperature 54 °F -  
Max Temperature 63 °F 73 °F 89 °F (1964)
Min Temperature 45 °F 50 °F 34 °F (1961)
Degree Days  
Heating Degree Days 11    
Growing Degree Days 4 (Base 50)    
Moisture  
Dew Point 36 °F    
Average Humidity 54    
Maximum Humidity 83    
Minimum Humidity 21    
Precipitation  
Precipitation 0.03 in - - ()
Sea Level Pressure  
Sea Level Pressure 29.74 in    
Wind  
Wind Speed 10 mph (WNW)    
Max Wind Speed 23 mph    
Max Gust Speed 38 mph    
Visibility 10 miles    
Events Rain    
Averages and records for this station are not official NWS values.
T = Trace of Precipitation, MM = Missing Value Source: NWS Daily Summary

Daily Weather History Graph

Daily Weather History Graph

Search for Another Location

Airport or City:

Trip Planner

Search our weather history database for the weather conditions in past years. The results will help you decide how hot, cold, wet, or windy it might be!

Date:

Astronomy

Oct. 10, 2013 Rise Set
Actual Time 6:29 AM MST 5:55 PM MST
Civil Twilight 6:03 AM MST 6:21 PM MST
Nautical Twilight 5:33 AM MST 6:51 PM MST
Astronomical Twilight 5:03 AM MST 7:21 PM MST
Moon 12:18 PM MST (10/10) 10:42 PM MST (10/10)
Length of Visible Light 12h 18m
Length of Day
11h 26m
Waxing Crescent, 37% of the Moon is Illuminated
Oct 10
Waxing Crescent
Oct 11
First Quarter
Oct 18
Full
Oct 26
Last Quarter
Nov 3
New

Hourly Weather History & Observations

Time (MST) Temp. Windchill Dew Point Humidity Pressure Visibility Wind Dir Wind Speed Gust Speed Precip Events Conditions
12:53 AM 63.0 °F - 21.9 °F 21% 29.56 in 10.0 mi South 23.0 mph 38.0 mph N/A   Overcast
1:53 AM 55.9 °F - 35.1 °F 45% 29.58 in 10.0 mi NNW 16.1 mph 19.6 mph N/A   Overcast
2:53 AM 52.0 °F - 36.0 °F 54% 29.58 in 10.0 mi NNW 8.1 mph 16.1 mph N/A   Overcast
3:53 AM 53.1 °F - 35.1 °F 50% 29.57 in 10.0 mi WNW 10.4 mph - N/A   Mostly Cloudy
4:53 AM 51.1 °F - 35.1 °F 54% 29.61 in 10.0 mi WNW 11.5 mph 18.4 mph N/A   Overcast
5:53 AM 46.0 °F 43.9 °F 39.9 °F 79% 29.65 in 10.0 mi West 4.6 mph - 0.03 in Rain Light Rain
6:53 AM 46.0 °F 43.1 °F 41.0 °F 83% 29.66 in 10.0 mi NNE 5.8 mph - 0.00 in Rain Light Rain
7:53 AM 46.9 °F - 41.0 °F 80% 29.67 in 10.0 mi NNE 3.5 mph - 0.00 in   Mostly Cloudy
8:53 AM 48.9 °F - 39.9 °F 71% 29.70 in 10.0 mi Calm Calm - N/A   Scattered Clouds
9:51 AM 51.8 °F - 39.2 °F 62% 29.81 in 10.0 mi Variable 4.6 mph - N/A   Mostly Cloudy
9:53 AM 51.1 °F - 39.9 °F 66% 29.71 in 10.0 mi Variable 3.5 mph - N/A   Mostly Cloudy
10:53 AM 50.0 °F - 41.0 °F 71% 29.72 in 10.0 mi NNW 9.2 mph 19.6 mph N/A   Mostly Cloudy
11:53 AM 48.0 °F - 39.9 °F 74% 29.75 in 3.0 mi WSW 4.6 mph - 0.01 in Rain Rain
12:53 PM 53.1 °F - 37.9 °F 57% 29.70 in 10.0 mi Variable 3.5 mph - 0.00 in   Clear
1:53 PM 57.0 °F - 37.9 °F 49% 29.71 in 10.0 mi Variable 4.6 mph - N/A   Scattered Clouds
2:53 PM 59.0 °F - 33.1 °F 38% 29.74 in 10.0 mi WNW 12.7 mph 23.0 mph N/A   Overcast
3:53 PM 57.9 °F - 33.1 °F 39% 29.77 in 10.0 mi West 13.8 mph 18.4 mph N/A   Partly Cloudy
4:53 PM 55.9 °F - 34.0 °F 44% 29.79 in 10.0 mi West 10.4 mph 20.7 mph N/A   Clear
5:53 PM 53.1 °F - 35.1 °F 50% 29.84 in 10.0 mi West 9.2 mph 19.6 mph N/A   Clear
6:53 PM 53.1 °F - 34.0 °F 48% 29.86 in 10.0 mi West 3.5 mph - N/A   Clear
7:53 PM 52.0 °F - 33.1 °F 49% 29.87 in 10.0 mi WSW 3.5 mph - N/A   Clear
8:53 PM 52.0 °F - 32.0 °F 47% 29.89 in 10.0 mi Calm Calm - N/A   Clear
9:53 PM 51.1 °F - 32.0 °F 48% 29.91 in 10.0 mi Calm Calm - N/A   Clear
10:53 PM 48.9 °F - 33.1 °F 54% 29.93 in 9.0 mi Calm Calm - N/A   Mostly Cloudy
11:53 PM 50.0 °F - 32.0 °F 50% 29.94 in 10.0 mi Calm Calm - N/A   Mostly Cloudy